Regional Weather Roundup
Issued by NWS Sioux Falls, SD

Home | Current Version | Previous Version | Graphics & Text | Print | Product List | Glossary On
Versions: 1 2 3 4 5 6 7 8 9 10 11 12 13 14 15 16 17 18 19 20 21 22 23 24 25 26 27 28 29 30 31 32 33 34 35 36 37 38 39 40 41 42 43 44 45 46 47 48 49 50
000
ASUS43 KFSD 241810
RWRFSD

WEATHER ROUNDUP FOR SE SOUTH DAKOTA/SW MINNESOTA/NW IOWA
NATIONAL WEATHER SERVICE SIOUX FALLS SD
100 PM CDT SAT JUN 24 2017

NOTE: "FAIR" INDICATES FEW OR NO CLOUDS BELOW 12,000 FEET WITH NO
SIGNIFICANT WEATHER AND OR OBSTRUCTIONS TO VISIBILITY.


SDZ038>040-050-052>070-241900-
SOUTHEAST SOUTH DAKOTA

CITY           SKY/WX    TMP DP  RH WIND       PRES   REMARKS
BROOKINGS      MOSUNNY   63  42  46 NW23G30   30.11R
CHAMBERLAIN    MOSUNNY   72  41  32 W22G29    30.19S
6HR MIN TEMP:  50; 6HR MAX TEMP:  73;

HURON          SUNNY     69  39  33 NW23G37   30.13S
6HR MIN TEMP:  49; 6HR MAX TEMP:  69;

MADISON        FAIR      64  39  39 NW29G38   30.12S
MITCHELL       SUNNY     74  39  28 NW26G33   30.14S
6HR MIN TEMP:  51; 6HR MAX TEMP:  74;

SIOUX FALLS    MOSUNNY   71  44  37 NW23G35   30.10R
6HR MIN TEMP:  51; 6HR MAX TEMP:  71;

WINNER         FAIR      73  32  22 NW24G32   30.20S
YANKTON        MOSUNNY   72  38  29 W23G33    30.14S
$$

MNZ071-072-080-081-089-090-097-098-241900-
SOUTHWEST MINNESOTA

CITY           SKY/WX    TMP DP  RH WIND       PRES   REMARKS
FAIRMONT       PTSUNNY   66  46  48 W12       30.05F
JACKSON        PTSUNNY   66  37  34 W20G31    30.07S
LUVERNE        MOSUNNY   68  34  28 NW24G32   30.10R
MARSHALL       PTSUNNY   63  42  46 NW20G29   30.07R
6HR MIN TEMP:  52; 6HR MAX TEMP:  65;

MONTEVIDEO     MOSUNNY   64  43  45 N14G24    30.07S
PIPESTONE      SUNNY     66  36  32 NW22G40   30.09S
REDWOOD FALLS  CLOUDY    62  44  51 NW16G22   30.05F
TRACY          PTSUNNY   66  44  43 NW18G30   30.08R
WINDOM         CLOUDY    70  37  30 W22G33    30.05S
WORTHINGTON    CLOUDY    68  42  38 NW23G30   30.08R
$$

IAZ001>003-012>014-020>022-031-032-NEZ013-014-SDZ071-241900-
NORTHWEST IOWA

CITY           SKY/WX    TMP DP  RH WIND       PRES   REMARKS
CHEROKEE       MOSUNNY   71  38  29 W15G32    30.11F
DENISON        SUNNY     75  43  31 W12G25    30.16F
ESTHERVILLE    PTSUNNY   68  41  37 W18G30    30.06F
LE MARS        PTSUNNY   73  37  27 W18G25    30.12F
ORANGE CITY    MOSUNNY   72  41  33 NW24G31   30.11S
SHELDON        MOSUNNY   72  37  28 W24G36    30.08S
SIOUX CITY     MOSUNNY   77  34  21 NW22G33   30.12F
6HR MIN TEMP:  50; 6HR MAX TEMP:  78;

SPENCER        MOSUNNY   74  38  27 W25G36    30.08F
6HR MIN TEMP:  50; 6HR MAX TEMP:  74;

STORM LAKE       N/A     72  36  26 W22G29    30.11F
$$

ABBREVIATIONS USED IN REMARKS
   TC - TEMPERATURE IN CELSIUS
  WCI - WIND CHILL INDEX
   HX - HEAT INDEX
  VSB - VISIBILITY





USA.gov is the U.S. government's official web portal to all federal, state and local government web resources and services.